Greeley, CO

11:16 PM MST on February 19, 2017 (GMT -0700)
Greeley-Weld County

Weather History for KGXY - August, 2013

Change the Weather History Date:

Monday, August 26, 2013

  Actual Average Record
Temperature  
Mean Temperature 76 °F -  
Max Temperature 93 °F - 98 °F (1985)
Min Temperature 59 °F - 46 °F (2001)
Degree Days  
Heating Degree Days 0    
Month to date heating degree days  
Cooling Degree Days 11    
Month to date cooling degree days  
Growing Degree Days 26 (Base 50)    
Moisture  
Dew Point 54 °F    
Average Humidity 51    
Maximum Humidity 77    
Minimum Humidity 23    
Precipitation  
Precipitation 0.00 in - 0.65 in (1989)
Sea Level Pressure  
Sea Level Pressure 30.14 in    
Wind  
Wind Speed 3 mph (NW)    
Max Wind Speed 15 mph    
Max Gust Speed 18 mph    
Visibility 10 miles    
Events      
T = Trace of Precipitation, MM = Missing Value Source: NWS Daily Summary

Daily Weather History Graph

Daily Weather History Graph

Search for Another Location

Airport or City:

Trip Planner

Search our weather history database for the weather conditions in past years. The results will help you decide how hot, cold, wet, or windy it might be!

Date:

Astronomy

Aug. 26, 2013 Rise Set
Actual Time 6:20 AM MDT 7:39 PM MDT
Civil Twilight 5:51 AM MDT 8:07 PM MDT
Nautical Twilight 5:17 AM MDT 8:41 PM MDT
Astronomical Twilight 4:42 AM MDT 9:17 PM MDT
Moon 10:50 PM MDT (8/26) 12:25 PM MDT (8/26)
Length of Visible Light 14h 15m
Length of Day
13h 19m
Waning Gibbous, 66% of the Moon is Illuminated
Aug 26
Waning Gibbous
Aug 28
Last Quarter
Sep 5
New
Sep 12
First Quarter
Sep 19
Full

Hourly Weather History & Observations

Time (MDT) Temp. Heat Index Dew Point Humidity Pressure Visibility Wind Dir Wind Speed Gust Speed Precip Events Conditions
12:15 AM 66.2 °F - 53.6 °F 64% 30.15 in 10.0 mi Calm Calm - N/A   Clear
12:35 AM 64.4 °F - 53.6 °F 68% 30.15 in 10.0 mi Calm Calm - N/A   Clear
12:55 AM 64.4 °F - 53.6 °F 68% 30.15 in 10.0 mi Calm Calm - N/A   Clear
1:15 AM 64.4 °F - 53.6 °F 68% 30.15 in 10.0 mi West 3.5 mph - N/A   Clear
1:35 AM 64.4 °F - 53.6 °F 68% 30.15 in 10.0 mi Calm Calm - N/A   Clear
1:55 AM 62.6 °F - 53.6 °F 72% 30.15 in 10.0 mi West 3.5 mph - N/A   Clear
2:15 AM 62.6 °F - 53.6 °F 72% 30.15 in 10.0 mi WNW 4.6 mph - N/A   Clear
2:35 AM 62.6 °F - 53.6 °F 72% 30.15 in 10.0 mi West 4.6 mph - N/A   Clear
2:55 AM 62.6 °F - 53.6 °F 72% 30.15 in 10.0 mi Calm Calm - N/A   Clear
3:15 AM 62.6 °F - 53.6 °F 72% 30.15 in 10.0 mi NNW 3.5 mph - N/A   Clear
3:35 AM 62.6 °F - 53.6 °F 72% 30.15 in 10.0 mi NW 5.8 mph - N/A   Clear
3:55 AM 60.8 °F - 53.6 °F 77% 30.14 in 10.0 mi NNE 4.6 mph - N/A   Clear
4:15 AM 60.8 °F - 53.6 °F 77% 30.15 in 10.0 mi NNW 4.6 mph - N/A   Clear
4:35 AM 60.8 °F - 53.6 °F 77% 30.15 in 10.0 mi NNW 5.8 mph - N/A   Clear
4:55 AM 60.8 °F - 51.8 °F 72% 30.15 in 10.0 mi SSE 4.6 mph - N/A   Clear
5:15 AM 60.8 °F - 53.6 °F 77% 30.16 in 10.0 mi West 3.5 mph - N/A   Clear
5:35 AM 60.8 °F - 53.6 °F 77% 30.16 in 10.0 mi Calm Calm - N/A   Clear
5:55 AM 60.8 °F - 51.8 °F 72% 30.16 in 10.0 mi NW 6.9 mph - N/A   Clear
6:15 AM 59.0 °F - 51.8 °F 77% 30.16 in 10.0 mi WNW 5.8 mph - N/A   Clear
6:35 AM 60.8 °F - 51.8 °F 72% 30.17 in 10.0 mi ESE 4.6 mph - N/A   Clear
6:55 AM 60.8 °F - 53.6 °F 77% 30.17 in 10.0 mi Calm Calm - N/A   Clear
7:15 AM 60.8 °F - 53.6 °F 77% 30.17 in 10.0 mi Calm Calm - N/A   Clear
7:35 AM 64.4 °F - 53.6 °F 68% 30.17 in 10.0 mi NW 3.5 mph - N/A   Clear
7:55 AM 64.4 °F - 53.6 °F 68% 30.18 in 10.0 mi Calm Calm - N/A   Clear
8:15 AM 66.2 °F - 53.6 °F 64% 30.17 in 10.0 mi North 3.5 mph - N/A   Clear
8:35 AM 69.8 °F - 53.6 °F 56% 30.17 in 10.0 mi Calm Calm - N/A   Clear
8:55 AM 69.8 °F - 55.4 °F 60% 30.17 in 10.0 mi Calm Calm - N/A   Clear
9:15 AM 71.6 °F - 55.4 °F 57% 30.17 in 10.0 mi Calm Calm - N/A   Clear
9:35 AM 75.2 °F - 57.2 °F 53% 30.18 in 10.0 mi Calm Calm - N/A   Clear
9:55 AM 77.0 °F - 55.4 °F 47% 30.18 in 10.0 mi Calm Calm - N/A   Clear
10:15 AM 80.6 °F 80.5 °F 55.4 °F 42% 30.17 in 10.0 mi East 5.8 mph - N/A   Clear
10:35 AM 80.6 °F 80.8 °F 57.2 °F 45% 30.18 in 10.0 mi East 3.5 mph - N/A   Clear
10:55 AM 82.4 °F 82.0 °F 57.2 °F 42% 30.18 in 10.0 mi SSE 3.5 mph - N/A   Clear
11:15 AM 82.4 °F 82.0 °F 57.2 °F 42% 30.18 in 10.0 mi SSE 4.6 mph - N/A   Clear
11:35 AM 84.2 °F 83.5 °F 57.2 °F 40% 30.17 in 10.0 mi SSW 4.6 mph - N/A   Clear
11:55 AM 86.0 °F 84.9 °F 57.2 °F 37% 30.17 in 10.0 mi Calm Calm - N/A   Clear
12:15 PM 84.2 °F 83.0 °F 55.4 °F 37% 30.16 in 10.0 mi ENE 5.8 mph - N/A   Clear
12:35 PM 87.8 °F 86.5 °F 57.2 °F 35% 30.15 in 10.0 mi East 9.2 mph - N/A   Clear
12:55 PM 87.8 °F 86.5 °F 57.2 °F 35% 30.14 in 5.0 mi East 9.2 mph - N/A   Clear
1:15 PM 87.8 °F 86.5 °F 57.2 °F 35% 30.14 in 10.0 mi SE 6.9 mph - N/A   Clear
1:35 PM 89.6 °F 87.7 °F 55.4 °F 31% 30.14 in 7.0 mi SE 6.9 mph - N/A   Clear
1:55 PM 89.6 °F 88.1 °F 57.2 °F 33% 30.13 in 4.0 mi South 8.1 mph - N/A   Clear
2:15 PM 91.4 °F 89.4 °F 55.4 °F 29% 30.12 in 3.0 mi ENE 5.8 mph - N/A   Clear
2:35 PM 91.4 °F 89.1 °F 53.6 °F 28% 30.12 in 10.0 mi East 8.1 mph - N/A   Clear
2:55 PM 91.4 °F - 51.8 °F 26% 30.11 in 10.0 mi ENE 6.9 mph - N/A   Clear
3:15 PM 91.4 °F - 51.8 °F 26% 30.10 in 6.0 mi Calm Calm - N/A   Clear
3:35 PM 91.4 °F - 50.0 °F 24% 30.10 in 10.0 mi NE 5.8 mph - N/A   Clear
3:55 PM 91.4 °F - 50.0 °F 24% 30.09 in 10.0 mi Calm Calm - N/A   Clear
4:15 PM 93.2 °F - 50.0 °F 23% 30.09 in 10.0 mi WNW 3.5 mph - N/A   Scattered Clouds
4:35 PM 93.2 °F - 50.0 °F 23% 30.09 in 10.0 mi Calm Calm - N/A   Partly Cloudy
4:55 PM 93.2 °F - 51.8 °F 24% 30.09 in 10.0 mi Calm Calm - N/A   Clear
5:15 PM 91.4 °F - 51.8 °F 26% 30.08 in 10.0 mi WNW 4.6 mph - N/A   Clear
5:35 PM 89.6 °F - 51.8 °F 27% 30.08 in 10.0 mi West 5.8 mph - N/A   Clear
5:55 PM 89.6 °F 87.3 °F 53.6 °F 29% 30.08 in 10.0 mi WNW 5.8 mph - N/A   Clear
6:15 PM 87.8 °F 86.1 °F 55.4 °F 33% 30.08 in 10.0 mi West 4.6 mph - N/A   Clear
6:35 PM 86.0 °F 84.5 °F 55.4 °F 35% 30.08 in 10.0 mi WSW 15.0 mph - N/A   Clear
6:55 PM 84.2 °F 82.8 °F 53.6 °F 35% 30.08 in 10.0 mi West 13.8 mph 18.4 mph N/A   Clear
7:15 PM 84.2 °F 82.8 °F 53.6 °F 35% 30.09 in 10.0 mi West 9.2 mph - N/A   Clear
7:35 PM 80.6 °F 80.3 °F 53.6 °F 39% 30.09 in 10.0 mi WNW 8.1 mph - N/A   Mostly Cloudy
7:55 PM 80.6 °F 80.5 °F 55.4 °F 42% 30.10 in 10.0 mi NW 10.4 mph - N/A   Overcast
8:15 PM 78.8 °F - 55.4 °F 44% 30.10 in 10.0 mi NNW 8.1 mph - N/A   Mostly Cloudy
8:35 PM 78.8 °F - 55.4 °F 44% 30.11 in 10.0 mi ENE 5.8 mph - N/A   Scattered Clouds
8:55 PM 77.0 °F - 57.2 °F 50% 30.11 in 10.0 mi West 5.8 mph - N/A   Clear
9:15 PM 77.0 °F - 55.4 °F 47% 30.12 in 10.0 mi NNW 6.9 mph - N/A   Clear
9:35 PM 75.2 °F - 55.4 °F 50% 30.12 in 10.0 mi North 5.8 mph - N/A   Clear
9:55 PM 75.2 °F - 55.4 °F 50% 30.13 in 10.0 mi WNW 5.8 mph - N/A   Scattered Clouds
10:15 PM 75.2 °F - 55.4 °F 50% 30.13 in 10.0 mi NW 6.9 mph - N/A   Mostly Cloudy
10:35 PM 73.4 °F - 55.4 °F 53% 30.13 in 10.0 mi WNW 8.1 mph - N/A   Mostly Cloudy
10:55 PM 73.4 °F - 57.2 °F 57% 30.14 in 10.0 mi West 5.8 mph - N/A   Mostly Cloudy
11:15 PM 75.2 °F - 57.2 °F 53% 30.15 in 10.0 mi West 10.4 mph - N/A   Overcast
11:35 PM 73.4 °F - 57.2 °F 57% 30.16 in 10.0 mi West 9.2 mph - N/A   Overcast
11:55 PM 75.2 °F - 57.2 °F 53% 30.16 in 10.0 mi West 8.1 mph - N/A   Mostly Cloudy